Island Lake Airport
CYIV : rendu visible

Aérodrome :











RETROUVEZ-NOUS SUR...

 
LOGIN :

S'inscrire | Disclaimer

   EN    FR    IT 

 









Légende :    VFR   VFR Marginal   IFR   IFR Intensif   IFR Très Intensif
Visi : 
Plafond : 
>= 8 km
>= 3000ft
5 à 8 km
1000 à 3000 ft
1500m à 5 km
500 à 1000 ft
800 à 1500m
200 à 500 ft
< 800m
< 200 ft
Symboles :   Orages  Brouillard  Fortes neiges  Fortes précipitations  Vent > 20 kt






- Altitude de l'aérodrome : 770 ft
- Code IATA : YIV


CYIV - Island Lake

DERNIER METAR :
  • 250000Z 29006KT 15SM SCT080 BKN250 16/03 A2982 RMK AC3CI2 LAST STFD OB/NEXT 241400 UTC SLP107 DENSITY ALT 1300FT

METARs EXPIRÉS :
  • 242300Z 29007KT 15SM FEW100 SCT250 17/04 A2982 RMK AC2CI2 SLP108 DENSITY ALT 1400FT

TAF TAF CYIV
Valide du 24 à 19h jusqu'au 25 à 07h UTC


241842Z 2419/2507 27005KT P6SM FEW030 SCT090
BECMG 2423/2424 35005KT
FM250000 35005KT P6SM SKC RMK NXT FCST BY 250100Z
FIR CZWG / Amérique du Nord



MET'MAP, la Météo Aéronautique d'un coup d'oeil ! - Copyright ORBIFLY Décembre 2007 - Disclaimer

ORBIFLY MET'MAP TEAM :

Programmation & Développement : Alexandra Zaïnal
Sur une idée originale de : Baudouin d'Aumeries
Assistance à la programmation : Marc-Olivier Méhu
Soutien technique & logistique : Manuel Goepfert

Contact : metmap@orbifly.com




SOURCES & CREDITS :

   NOAA       Earth
Advisory